RH
58 58 58 56 60 58 48 50 49 50 47 45 44 41 39 38 37 36 33 30 27 22 13 6 6 8 7 5 4 4 4 4 4 4 4 4 5 4 4 5 5 5 6 8 8 9 10
66 63 58 56 58 54 50 51 51 51 48 46 45 43 38 36 37 36 33 30 26 19 10 6 7 8 7 6 5 5 5 4 4 5 5 5 5 5 5 5 5 6 7 8 8 8 9
60 62 62 60 59 58 51 48 49 48 50 49 48 43 39 38 35 33 28 24 18 12 7 6 7 9 7 6 6 5 5 6 5 5 6 6 6 6 6 6 6 6 8 8 8 8 10
46 51 58 61 70 68 63 51 48 47 48 46 48 46 40 37 30 21 13 9 8 7 7 7 8 9 8 7 7 6 6 6 6 6 6 7 7 6 7 7 7 8 9 8 8 10 14
13 17 50 49 57 48 51 50 49 49 48 46 43 42 36 28 18 9 8 8 8 8 8 9 9 10 10 8 7 7 6 6 6 7 7 7 7 7 7 7 8 9 10 9 9 11 14
18 17 14 26 26 20 20 31 47 37 21 20 23 20 14 11 10 10 10 9 9 8 8 9 8 10 10 10 9 8 7 7 7 7 7 7 8 8 9 8 9 11 11 9 10 14 15
20 19 18 18 18 19 16 17 14 14 12 12 11 11 11 10 11 10 10 10 10 10 10 11 14 12 14 12 11 10 9 8 8 8 9 10 11 11 11 10 10 11 11 10 13 19 18
20 22 21 19 19 21 21 22 22 22 19 18 18 15 14 14 12 12 11 11 11 13 12 11 12 15 14 14 14 12 11 10 10 10 10 11 11 12 12 12 12 13 13 13 18 22 21
27 25 24 23 22 22 22 21 22 22 24 25 25 24 22 21 22 21 20 18 17 17 17 16 15 14 16 17 17 17 17 15 13 12 12 12 12 13 13 14 15 15 15 18 24 27 27
33 38 36 32 31 28 25 24 23 21 22 21 22 25 27 26 26 27 26 25 24 24 23 22 22 21 21 20 20 20 20 20 20 19 17 16 16 17 19 19 20 19 21 24 29 29 26
24 31 40 43 38 34 31 30 29 27 24 22 20 19 18 18 19 20 20 20 21 21 22 22 22 24 25 24 24 24 24 24 23 22 22 23 24 25 29 32 34 32 37 37 34 32 28
20 32 44 46 46 40 36 34 34 32 32 31 27 24 23 22 23 24 24 24 23 24 21 24 23 23 22 25 27 26 32 29 29 30 34 34 35 40 42 43 43 41 41 39 36 33 27
18 19 22 33 47 54 48 42 38 33 30 29 31 34 33 29 28 27 27 28 28 24 31 30 31 32 31 31 31 33 36 41 49 54 47 50 51 50 49 47 45 46 49 48 42 35 28
52 23 20 21 26 40 49 50 46 40 40 37 35 34 35 36 40 38 33 30 24 24 30 37 37 39 42 42 42 44 40 44 53 55 57 61 62 60 61 59 58 59 57 54 44 36 31
92 84 57 29 24 23 25 31 38 36 34 35 36 38 40 40 42 40 36 29 31 41 38 43 43 40 46 50 49 51 53 59 62 62 59 62 58 57 59 59 57 54 53 55 53 44 36
100 97 90 92 81 47 32 28 27 26 25 25 28 31 36 35 41 40 31 22 29 42 58 65 63 56 54 60 61 62 60 60 65 67 64 59 56 54 53 55 54 53 54 57 60 55 41
100 99 98 98 98 98 98 89 74 56 41 33 30 29 32 33 34 33 21 25 40 50 65 69 64 63 57 63 70 70 61 66 70 73 78 77 72 58 58 53 56 56 50 45 39 32 27
100 100 99 97 99 99 99 98 99 98 98 93 88 78 73 61 50 27 24 38 49 56 67 57 54 52 49 54 50 47 46 55 61 68 64 64 56 46 44 38 33 28 22 21 21 24 29
100 100 100 100 99 99 99 99 100 99 100 99 97 97 98 96 81 71 58 40 36 33 40 42 46 55 81 66 41 34 34 40 38 37 36 37 30 26 20 20 20 30 41 50 49 44 35
100 100 100 100 100 100 99 100 100 99 100 100 98 99 96 98 92 96 95 96 96 97 95 90 66 52 49 62 68 69 52 43 51 64 68 65 39 34 44 56 60 61 64 64 61 50 43
100 100 100 100 100 100 100 100 100 99 99 100 97 94 98 90 96 100 100 99 100 98 100 100 95 94 100 100 96 90 93 99 100 100 100 99 82 76 66 68 72 73 72 76 66 59 54
100 100 98 100 99 100 100 100 100 100 100 100 95 75 80 90 91 92 97 84 96 100 100 100 96 100 100 84 95 100 100 100 99 94 100 97 84 92 80 88 95 92 76 68 64 59 52
100 100 100 100 100 100 100 100 100 100 100 97 93 100 100 80 80 88 60 58 78 100 92 99 99 100 91 87 100 99 96 94 96 90 89 91 82 79 66 83 98 89 39 55 60 56 60
94 100 100 100 100 100 100 100 100 100 100 100 100 97 98 88 99 84 95 98 91 87 83 82 82 68 77 100 98 96 98 98 93 76 80 75 80 93 77 89 95 38 49 54 58 52 63
14 28 77 85 97 100 100 98 100 100 100 100 100 100 100 95 89 93 97 100 99 100 94 86 78 73 100 92 100 96 83 88 61 68 65 69 77 92 100 86 75 50 37 43 60 48 58
25 25 19 18 29 78 100 100 99 100 100 100 100 100 100 100 93 92 90 100 100 100 100 81 94 100 100 94 100 100 97 91 87 77 81 89 96 100 100 100 81 27 49 64 64 46 36
22 23 24 23 22 20 34 100 100 100 100 100 100 100 100 100 99 97 93 75 92 100 100 99 100 100 100 100 100 100 100 97 97 80 76 99 100 100 99 100 91 45 50 77 84 22 57
25 23 21 20 19 17 16 19 98 100 100 100 100 100 100 100 100 100 100 100 97 95 99 98 100 100 100 100 100 99 100 100 100 93 84 92 99 100 100 100 99 53 80 85 66 92 100
24 24 24 23 21 19 18 16 31 100 99 100 100 100 100 100 98 100 100 98 100 100 100 100 100 100 100 100 100 100 100 100 97 96 91 100 88 98 100 100 100 100 100 100 97 100 100
Wind_Speed
9 11 14 16 18 18 18 19 20 21 22 23 24 24 26 27 27 28 29 29 30 30 29 30 31 32 33 32 32 32 31 29 28 29 29 28 26 24 24 22 22 20 19 18 17 17 18
11 10 11 14 16 17 18 19 21 22 23 23 24 25 26 27 28 29 29 30 30 31 30 31 31 33 34 34 33 33 32 31 31 30 30 29 28 26 25 24 24 23 22 21 20 20 20
12 14 14 14 15 16 18 20 21 22 24 25 26 27 27 28 29 30 30 31 31 31 31 32 33 34 35 35 34 35 35 33 32 32 31 30 29 27 27 26 25 25 24 23 22 22 23
11 12 13 16 17 16 18 19 22 23 24 25 25 27 28 29 29 30 30 31 31 32 32 32 33 34 34 36 37 36 36 35 34 34 33 32 31 30 29 28 28 27 26 25 24 23 23
12 14 14 15 18 19 20 20 21 22 23 24 25 27 28 28 28 29 29 30 30 31 31 32 33 34 35 35 37 38 38 38 37 37 36 34 33 32 31 30 30 28 27 26 25 24 23
12 14 16 18 18 19 19 22 22 22 22 24 25 27 27 28 28 28 29 30 31 32 33 33 34 34 34 36 37 38 39 39 39 39 38 37 35 34 33 32 31 30 30 29 27 26 25
11 13 15 17 18 19 21 22 22 24 24 25 25 26 26 28 29 30 30 31 31 32 33 33 33 33 34 36 37 39 41 42 42 41 40 39 37 35 36 35 34 34 33 31 30 28 27
16 15 16 16 17 19 20 21 23 25 26 27 27 28 28 29 30 31 31 32 33 33 33 34 35 35 36 37 38 40 40 41 41 40 40 40 39 38 38 37 37 36 35 33 32 31 32
22 19 19 19 20 20 21 22 23 23 24 26 27 28 29 30 31 31 32 33 34 33 33 34 35 35 35 36 37 39 40 41 41 41 41 41 41 40 39 38 38 38 38 36 35 35 36
27 25 23 23 24 24 24 24 24 24 24 24 25 27 28 30 30 31 32 32 32 33 34 34 35 36 36 36 39 39 39 39 39 40 40 41 40 39 38 39 39 40 39 39 40 40 40
31 31 30 29 28 28 28 27 27 26 26 26 27 27 28 29 30 30 31 31 32 32 34 34 34 33 33 35 33 35 35 37 38 38 38 40 39 38 38 38 38 39 39 40 41 42 43
35 34 34 34 33 33 32 31 30 30 30 30 30 30 31 31 31 32 32 32 32 33 35 31 30 30 32 33 33 33 35 36 36 37 37 38 38 38 38 38 40 40 41 42 44 45 48
38 37 37 38 38 37 37 37 37 36 35 34 34 34 35 34 34 35 35 35 36 38 33 33 30 28 30 32 32 34 35 36 38 37 36 38 39 40 41 42 42 42 43 45 48 48 49
41 41 40 40 41 42 42 41 41 41 40 40 40 39 39 39 38 38 39 40 41 38 35 35 32 32 33 32 33 36 37 39 39 40 42 44 43 43 42 42 44 45 46 49 53 53 54
46 46 45 44 43 43 44 44 45 44 44 43 43 43 43 43 43 43 44 47 43 39 38 37 38 39 39 38 38 39 40 40 41 41 45 45 47 46 46 47 49 49 50 50 54 57 59
50 51 50 50 48 46 46 46 47 47 47 47 47 47 47 48 47 48 50 51 48 45 43 41 42 44 44 43 43 44 45 45 45 46 48 50 52 51 51 52 53 54 53 54 55 59 61
52 53 55 55 55 53 53 52 50 49 50 50 51 51 50 52 52 54 55 53 48 46 45 47 47 48 48 48 49 49 51 50 50 50 51 53 55 56 56 56 55 56 56 54 54 58 59
55 55 56 57 56 56 56 56 58 59 57 58 56 55 54 55 57 58 56 53 50 48 49 50 50 49 50 51 53 55 55 54 54 53 54 55 57 59 57 57 57 56 56 54 54 56 59
58 58 59 58 59 58 56 55 55 54 56 61 60 61 61 61 59 58 56 54 53 51 50 51 52 52 53 55 57 56 54 52 53 53 53 53 59 60 62 61 59 55 53 53 54 57 65
66 67 63 63 62 58 59 61 63 62 59 61 59 56 58 59 56 54 54 53 55 55 57 57 58 58 59 58 57 60 59 58 56 55 56 58 61 64 66 64 63 63 59 58 60 66 65
68 62 61 66 60 62 60 65 66 62 54 56 58 57 55 54 52 53 56 58 57 60 60 59 61 60 59 59 59 60 61 61 61 61 62 65 67 68 67 68 68 68 67 66 67 64 69
62 65 65 63 63 60 58 55 59 59 60 68 69 64 63 64 60 57 58 55 58 56 57 56 58 57 60 62 63 64 65 66 66 67 67 68 68 68 69 69 71 71 69 70 69 68 66
67 60 60 65 64 63 63 61 62 61 59 65 68 65 65 65 63 62 61 58 56 58 58 56 53 54 55 54 59 62 64 64 66 66 68 69 69 70 69 70 70 73 60 66 65 62 59
86 76 66 62 66 67 61 61 58 60 57 60 60 64 65 66 66 61 59 58 57 58 59 56 57 57 54 54 57 59 61 62 62 62 63 62 62 63 63 64 71 65 58 60 59 56 57
79 82 86 85 78 66 70 69 60 60 63 66 64 64 64 63 64 66 65 64 63 62 63 63 61 60 59 60 61 64 65 66 66 65 63 63 63 62 64 66 66 61 61 58 56 54 53
71 70 69 70 79 79 76 66 75 71 68 66 69 64 61 61 65 62 64 64 64 67 69 67 64 62 65 66 64 66 69 69 69 68 66 66 64 63 64 69 73 66 56 57 56 66 63
73 72 70 69 67 67 71 73 74 78 81 70 55 53 62 71 72 71 71 69 69 69 71 69 67 68 67 66 65 66 69 71 73 72 70 68 68 70 70 74 76 67 65 67 69 71 64
71 71 71 71 70 69 68 68 73 80 84 79 73 59 68 65 70 71 80 78 75 74 76 74 72 73 75 73 71 70 72 72 72 72 72 73 73 72 73 77 78 72 71 72 68 67 71
59 65 68 69 68 67 66 64 65 67 67 75 86 74 72 74 76 70 76 81 80 79 74 77 73 74 74 78 79 73 71 74 73 76 74 78 80 77 77 78 74 72 74 75 77 79 79
Wind_Direction
228 211 211 211 214 216 214 213 214 213 214 213 212 213 213 211 213 214 212 210 209 209 211 209 204 204 205 207 210 212 214 219 222 223 224 227 231 237 239 239 241 242 241 238 236 236 235
212 213 214 215 213 216 215 215 216 214 214 214 213 213 213 216 215 215 215 212 211 210 213 209 206 207 207 209 213 214 218 220 222 225 227 231 236 238 240 242 243 245 245 243 243 246 244
222 220 225 221 215 215 217 218 218 220 219 215 214 212 216 217 219 218 217 215 213 211 210 209 209 209 211 213 215 218 219 223 225 227 229 232 236 238 242 244 246 246 245 246 249 252 250
230 226 227 222 225 229 225 221 220 220 222 221 218 219 217 220 219 221 218 215 212 209 209 210 212 214 215 217 218 221 222 225 227 228 231 235 238 241 243 246 247 247 246 250 252 252 252
244 234 220 220 222 225 222 218 219 220 221 222 223 222 220 221 221 219 214 212 211 210 211 211 214 216 219 222 222 224 226 228 229 231 234 238 241 243 244 246 248 249 249 252 253 252 254
241 245 239 229 229 228 224 221 219 221 223 225 227 225 221 219 216 214 212 212 211 212 212 214 216 218 221 224 227 228 230 232 233 235 237 239 241 243 245 247 248 249 251 253 255 255 251
233 241 246 245 243 241 235 231 229 226 226 223 223 222 219 217 217 215 215 216 217 217 217 219 221 224 224 227 229 231 233 234 236 238 239 240 241 243 245 248 249 249 251 252 254 252 246
238 234 240 242 244 244 242 242 238 234 230 231 227 223 222 222 222 221 221 222 222 223 222 224 224 227 228 230 232 233 235 237 238 239 241 242 243 245 247 249 250 250 251 252 251 248 245
240 235 234 235 240 243 243 240 237 234 233 230 229 229 229 228 228 228 229 228 228 228 228 230 230 230 230 232 233 235 236 238 239 241 241 244 246 247 249 251 252 252 252 252 250 248 249
237 238 235 235 235 235 237 238 238 236 233 231 230 228 226 226 226 227 228 228 229 230 232 232 232 231 232 233 234 235 236 238 240 242 244 245 247 248 250 251 251 252 253 253 252 254 255
239 239 237 235 237 238 237 236 235 236 236 235 231 230 229 228 228 228 230 230 231 232 235 235 236 237 236 237 237 238 239 240 242 243 244 246 247 248 249 250 251 252 252 253 255 256 256
246 242 240 240 239 240 240 240 239 238 237 237 237 234 234 232 231 230 230 231 232 232 233 235 236 236 236 237 235 233 236 238 240 241 243 246 246 247 248 249 251 253 255 256 257 259 259
254 248 245 243 241 242 241 242 240 239 239 239 238 238 238 236 235 234 234 233 234 235 234 236 237 237 237 237 236 236 235 237 240 242 244 246 247 247 247 249 252 254 254 257 258 259 263
250 251 249 247 247 244 243 243 243 243 240 238 238 239 238 238 238 239 238 237 239 240 239 242 241 241 241 239 239 239 240 241 241 244 245 245 246 248 248 250 251 251 253 256 261 263 263
249 248 248 247 245 245 246 246 245 244 244 243 241 241 240 240 239 240 241 244 244 244 242 241 244 244 242 242 242 243 242 242 244 246 248 249 250 249 251 252 254 255 258 262 265 266 267
251 248 246 245 243 244 245 246 246 246 246 246 245 244 243 244 244 244 244 245 245 246 247 246 245 246 246 247 247 247 246 246 247 249 250 251 255 253 254 255 257 261 262 263 265 269 270
261 255 251 248 246 243 241 240 242 245 247 246 246 247 246 247 246 246 247 248 248 249 250 249 248 249 250 251 250 250 250 250 251 251 253 256 257 257 256 257 259 259 261 262 265 267 271
256 265 259 253 251 253 252 250 245 241 240 242 242 244 245 247 249 251 252 253 253 252 252 251 251 251 253 254 254 253 253 253 254 253 255 257 259 260 259 258 257 259 261 264 267 271 272
253 255 258 263 258 251 250 253 254 254 254 254 252 250 248 246 250 252 253 255 255 254 254 256 255 254 254 255 256 255 257 257 258 257 256 255 255 259 260 259 261 264 266 267 267 266 267
251 251 253 256 258 263 259 254 251 251 251 253 254 256 258 256 257 258 258 257 257 256 254 252 252 253 253 255 257 260 259 260 258 258 258 258 257 258 261 265 265 264 264 263 264 265 270
243 247 247 250 252 252 259 255 259 258 257 259 254 255 257 255 253 255 256 256 255 256 256 257 256 257 258 260 258 258 260 261 261 260 261 261 261 262 263 264 264 264 264 265 265 267 267
239 242 243 246 245 248 247 248 252 255 256 258 253 255 254 253 253 253 254 254 255 253 255 255 256 256 259 261 261 260 259 259 260 260 260 261 264 263 263 264 265 265 265 265 266 266 271
239 239 241 246 249 249 249 252 246 250 251 254 255 247 246 249 249 247 252 254 255 256 257 258 258 258 261 265 264 262 261 262 262 262 263 263 263 264 263 263 262 262 269 269 270 272 272
251 244 241 241 246 249 251 251 250 237 233 242 247 249 248 245 247 251 252 252 252 254 255 254 258 264 266 263 263 264 264 263 262 264 264 266 266 263 264 262 260 271 270 271 269 268 268
250 254 255 255 252 250 251 251 246 229 237 241 243 245 249 249 248 244 247 248 247 247 249 252 258 260 256 259 259 259 260 259 265 262 264 265 264 263 261 264 268 268 272 272 273 271 271
251 251 251 251 248 247 244 245 252 244 233 238 239 241 245 250 251 248 243 242 244 246 246 251 250 251 255 256 252 253 256 259 257 260 261 259 258 257 259 260 262 279 272 270 266 268 270
248 248 249 249 249 250 250 233 236 240 239 237 242 252 242 242 245 248 246 244 244 245 247 247 248 248 248 248 248 249 251 254 254 258 258 255 256 257 260 261 264 271 270 267 263 279 275
246 247 248 249 250 250 250 254 246 236 232 234 239 240 237 240 236 243 243 244 248 249 250 249 248 245 247 248 249 249 249 251 253 254 255 255 254 255 257 258 260 267 265 266 273 268 265
242 243 244 246 247 247 248 248 250 254 252 243 242 243 241 246 239 236 240 242 242 246 251 253 254 251 252 251 252 255 258 257 257 257 252 253 255 259 257 260 262 262 261 261 261 262 265